Home   Weather   Medellin   Past weeks

Flag for Colombia Past Weather in Medellin, Colombia — Yesterday and Last 2 Weeks

Now
72 °F

Scattered showers. Scattered clouds.


Feels Like: 76 °F
Forecast: N/A
Wind: 9 mph from East

Location: Rionegro / J. M. Cordova

Current Time: Sep 29, 2016 at 5:18:30 PM

Latest Report: Sep 29, 2016 at 5:00 PM


Visibility: N/A

Pressure: 30.21 "Hg (25.46 "Hg at 1479m altitude)

Humidity: 57%

Dew Point: 55 °F

Location of MedellinLocation

Past Weather in Medellin — Graph

°F

Medellin Temperature Yesterday

Maximum temperature yesterday: 73 °F (at 3:00 PM)
Minimum temperature yesterday: 55 °F (at 6:00 AM)
Average temperature yesterday: 63 °F

High & Low Weather Summary for the Past Weeks

 TemperatureHumidityPressure
High75 °F (Sep 17, 2:00 PM)100% (Sep 15, 1:00 AM)30.39 "Hg (Sep 15, 1:00 AM)
Low54 °F (Sep 20, 2:00 AM)34% (Sep 17, 3:00 PM)30.18 "Hg (Sep 18, 4:00 PM)
Average63 °F77%30.29 "Hg
* Reported Sep 14 4:00 PM — Sep 29 4:00 PM, Medellin, Weather by CustomWeather, © 2016

Note: Actual official high and low records may vary slightly from our data, if they occured in-between our weather recording intervals... More about our weather records

Advertising

Medellin Weather History for the Previous 24 Hours

Scroll right to see more
 ConditionsComfort  
Time TempWeatherWind HumidityBarometerVisibility
4:00 PM
Thu, Sep 29
73 °FScattered clouds.6 mph50%30.20 "HgN/A
3:00 PM73 °FScattered clouds.7 mph44%30.22 "HgN/A
2:00 PM72 °FScattered clouds.7 mph50%30.25 "HgN/A
1:00 PM68 °FScattered clouds.7 mph69%30.29 "HgN/A
12:00 PM72 °FScattered clouds.9 mph57%30.32 "HgN/A
11:00 AM68 °FScattered clouds.3 mph64%30.35 "HgN/A
10:00 AM64 °FScattered clouds.5 mph78%30.37 "HgN/A
9:00 AM61 °FFog.2 mph88%30.38 "Hg5 mi
8:00 AM59 °FLow clouds.3 mph94%30.37 "Hg2 mi
7:00 AM57 °FLow clouds.2 mph100%30.35 "Hg2 mi
6:00 AM57 °FRain. Partly sunny.No wind94%30.29 "Hg5 mi
5:00 AM57 °FFog.No wind94%30.28 "Hg3 mi
4:00 AM57 °FFog.No wind100%30.30 "Hg3 mi
3:00 AM57 °FPartly cloudy.No wind100%30.30 "Hg5 mi
2:00 AM57 °FPartly cloudy.No wind94%30.31 "Hg5 mi
1:00 AM57 °FPassing clouds.3 mph94%30.33 "Hg5 mi
12:00 AM57 °FLight rain. Passing clouds.3 mph94%30.34 "Hg4 mi
11:00 PM
Wed, Sep 28
57 °FThunderstorms. Passing clouds.6 mph94%30.37 "Hg3 mi
10:00 PM59 °FPartly cloudy.5 mph94%30.35 "HgN/A
9:00 PM63 °FPassing clouds.8 mph88%30.34 "HgN/A
8:00 PM63 °FPassing clouds.5 mph94%30.30 "HgN/A
7:00 PM64 °FPassing clouds.5 mph83%30.27 "HgN/A
6:00 PM68 °FPassing clouds.6 mph64%30.24 "HgN/A
5:00 PM72 °FScattered clouds.6 mph47%30.22 "HgN/A
Weather by CustomWeather, © 2016

See weather overviewHow to use our weather pages